User: anonymous   Login
Location: Newark
(43.0000°N, 1.6781°W)
Time: 09:14:01
(UTC+00:00)
Language:

NOAA 19 - Orbit

View from above orbital plane
View from above orbital plane
View from above satellite
View from above satellite

Ground track
Ground track

The orbit data is extracted from the following two-line orbital elements,

1 33591U 09005A   22329.84196561  .00000165  00000-0  11391-3 0  9993
2 33591  99.1299   7.2351 0014840  94.9385 265.3480 14.12642575710974
Epoch (UTC): 25 November 2022 20:12:25
Eccentricity: 0.0014840
inclination: 99.1299°
perigee height: 839 km
apogee height: 861 km
right ascension of ascending node: 7.2351°
argument of perigee: 94.9385°
revolutions per day: 14.12642575
mean anomaly at epoch: 265.3480°
orbit number at epoch: 71097

The dashed part of the orbit path shows where the satellite is in the earth's shadow,  

DLR